Flag for Guernsey Weather past 2 weeks in St. Peter Port, Guernsey

55 °F

Partly sunny.

Feels Like: 51 °F
Forecast: 53 / 61 °F
Wind: 21 mph from West

Location: Guernsey Airport

Current Time: Oct 7, 2015 at 11:33:28 AM

Latest Report: Oct 7, 2015 at 11:20 AM

Visibility: N/A

Pressure: 29.95 "Hg

Humidity: 72%

Dew point: 46 °F

Location of St. Peter PortLocation

Historic Weather in St. Peter Port — Graph


St. Peter Port temperature yesterday

Maximum temperature yesterday: 61 °F (at 3:50 AM)
Minimum temperature yesterday: 55 °F (at 6:20 PM)
Average temperature yesterday: 59 °F

Past Weeks' High & Low Weather Summary

High64 °F (Sep 28, 1:20 PM)100% (Sep 23, 8:50 PM)30.51 "Hg (Sep 23, 8:50 PM)
Low52 °F (Sep 26, 4:20 AM)49% (Sep 30, 12:20 PM)29.30 "Hg (Oct 6, 12:50 PM)
Average58 °F78%30.09 "Hg
* Reported Sep 22 10:20 AM — Oct 7 10:20 AM, St. Peter Port, Weather by CustomWeather, © 2015

Note: Actual official high and low records may vary slightly from our data, if they occured in-between our weather recording intervals... More about our weather records


St. Peter Port weather history for previous 24 hours

Time TempWeatherWind HumidityBarometerVisibility
10:20 AM
Wed, Oct 7
57 °FPassing clouds.18 mph63%29.92 "HgN/A
9:50 AM57 °FPassing clouds.17 mph63%29.92 "HgN/A
9:20 AM55 °FPassing clouds.17 mph72%29.92 "HgN/A
8:50 AM55 °FPartly sunny.18 mph67%29.89 "HgN/A
8:20 AM55 °FPartly sunny.18 mph72%29.89 "HgN/A
7:50 AM55 °FPassing clouds.20 mph72%29.86 "HgN/A
7:20 AM54 °FSprinkles. Passing clouds.18 mph77%29.86 "HgN/A
6:50 AM55 °FPassing clouds.21 mph72%29.83 "HgN/A
6:20 AM55 °FPassing clouds.18 mph72%29.83 "HgN/A
5:50 AM55 °FScattered showers. Passing clouds.21 mph72%29.83 "HgN/A
5:20 AM55 °FScattered showers. Passing clouds.22 mph77%29.80 "HgN/A
4:50 AM55 °FPassing clouds.23 mph67%29.80 "HgN/A
4:20 AM55 °FPassing clouds.23 mph77%29.77 "HgN/A
3:50 AM55 °FPassing clouds.24 mph67%29.77 "HgN/A
8:50 PM
Tue, Oct 6
57 °FSprinkles. Partly cloudy.24 mph100%29.56 "Hg4 mi
8:20 PM57 °FPartly cloudy.22 mph100%29.53 "HgN/A
7:50 PM57 °FSprinkles. Partly cloudy.23 mph100%29.53 "Hg5 mi
7:20 PM57 °FScattered showers. Broken clouds.22 mph100%29.50 "HgN/A
6:50 PM55 °FRain showers. Broken clouds.26 mph100%29.47 "Hg2 mi
6:20 PM55 °FSprinkles. Broken clouds.30 mph100%29.47 "HgN/A
5:50 PM57 °FSprinkles. Broken clouds.32 mph94%29.45 "HgN/A
5:20 PM57 °FSprinkles. Broken clouds.32 mph94%29.45 "HgN/A
4:50 PM57 °FSprinkles. Broken clouds.31 mph100%29.42 "Hg3 mi
4:20 PM59 °FBroken clouds.26 mph94%29.39 "HgN/A
3:50 PM59 °FBroken clouds.32 mph94%29.39 "HgN/A
3:20 PM59 °FBroken clouds.33 mph88%29.36 "HgN/A
2:50 PM59 °FBroken clouds.26 mph94%29.36 "HgN/A
2:20 PM59 °FSprinkles. Broken clouds.28 mph94%29.33 "HgN/A
1:50 PM59 °FBroken clouds.26 mph94%29.33 "HgN/A
1:20 PM59 °FBroken clouds.24 mph94%29.33 "HgN/A
12:50 PM59 °FRain showers. Broken clouds.24 mph94%29.30 "Hg2 mi
12:20 PM59 °FSprinkles. Broken clouds.24 mph94%29.33 "Hg5 mi
11:50 AM59 °FSprinkles. Broken clouds.23 mph94%29.33 "Hg4 mi
11:20 AM59 °FSprinkles. Partly sunny.21 mph94%29.33 "HgN/A
Weather by CustomWeather, © 2015

See weather overviewHow to use our weather pages